When you browse on this site, cookies collect data to enhance your experience and personalize the content and advertising you see.
Visit our Privacy Policy to learn more. By continuing to use the site, you agree to this use of cookies and data.
  • In Hungary
  • List of Countries
  • For 7 days
  • Water Temperature
  • Weather Map
  • News
  • Weather Widgets
  • user-avatar
    Login

    Hourly Weather Vizhnica

    Today, 6 December, Friday

    Time Temperature Precipitation Wind Pressure Humidity
    00:00 +1°C° 0 mm 3 mps 721 mmHg 58%
    01:00 0°C° 0 mm 3 mps 721 mmHg 58%
    02:00 -1°C° 0 mm 4 mps 721 mmHg 59%
    03:00 -1°C° 0 mm 4 mps 721 mmHg 59%
    04:00 -1°C° 0 mm 4 mps 720 mmHg 57%
    05:00 -1°C° 0 mm 4 mps 720 mmHg 55%
    06:00 -1°C° 0 mm 4 mps 719 mmHg 53%
    07:00 -1°C° 0 mm 4 mps 720 mmHg 53%
    08:00 -1°C° 0 mm 4 mps 719 mmHg 56%
    09:00 -1°C° 0 mm 5 mps 719 mmHg 56%
    10:00 0°C° 0 mm 5 mps 719 mmHg 57%
    11:00 +1°C° 0 mm 6 mps 718 mmHg 59%
    12:00 +2°C° 0 mm 5 mps 718 mmHg 63%
    13:00 +5°C° 0 mm 5 mps 718 mmHg 65%
    14:00 +5°C° 0 mm 5 mps 718 mmHg 67%
    15:00 +5°C° 0 mm 4 mps 718 mmHg 69%
    16:00 +3°C° 0 mm 4 mps 717 mmHg 70%
    17:00 +3°C° 0 mm 4 mps 717 mmHg 67%
    18:00 +1°C° 0 mm 4 mps 717 mmHg 67%
    19:00 +1°C° 0 mm 5 mps 717 mmHg 68%
    20:00 +1°C° 0 mm 5 mps 717 mmHg 68%
    21:00 +1°C° 0 mm 5 mps 717 mmHg 68%
    22:00 +1°C° 0 mm 6 mps 716 mmHg 67%
    23:00 +1°C° 0 mm 6 mps 716 mmHg 67%

    Tomorrow, 7 December, Saturday

    Time Temperature Precipitation Wind Pressure Humidity
    00:00 +1°C° 0 mm 6 mps 716 mmHg 70%
    01:00 +1°C° 0 mm 6 mps 716 mmHg 73%
    02:00 +1°C° 0 mm 6 mps 716 mmHg 78%
    03:00 -1°C° 0 mm 7 mps 715 mmHg 81%
    04:00 -1°C° 0 mm 7 mps 715 mmHg 83%
    05:00 -1°C° 0 mm 6 mps 715 mmHg 83%
    06:00 +1°C° 0 mm 6 mps 714 mmHg 83%
    07:00 +1°C° 0 mm 6 mps 715 mmHg 83%
    08:00 +1°C° 0 mm 6 mps 715 mmHg 81%
    09:00 +1°C° 0 mm 6 mps 715 mmHg 81%
    10:00 +2°C° 0 mm 6 mps 714 mmHg 79%
    11:00 +5°C° 0 mm 5 mps 714 mmHg 79%
    12:00 +5°C° 0 mm 6 mps 714 mmHg 77%
    13:00 +5°C° 0 mm 6 mps 714 mmHg 75%
    14:00 +5°C° 0 mm 6 mps 713 mmHg 75%
    15:00 +5°C° 0 mm 6 mps 713 mmHg 76%
    16:00 +4°C° 0 mm 6 mps 713 mmHg 79%
    17:00 +3°C° 0 mm 6 mps 712 mmHg 80%
    18:00 +3°C° 0 mm 5 mps 712 mmHg 83%
    19:00 +2°C° 0 mm 5 mps 713 mmHg 84%
    20:00 +2°C° 0 mm 5 mps 713 mmHg 85%
    21:00 +4°C° 0 mm 4 mps 713 mmHg 85%
    22:00 +4°C° 0 mm 3 mps 714 mmHg 84%
    23:00 +3°C° 0 mm 4 mps 714 mmHg 85%

    Day after tomorrow, 8 December, Sunday

    Time Temperature Precipitation Wind Pressure Humidity
    00:00 +1°C° 0 mm 4 mps 714 mmHg 87%
    01:00 +1°C° 0 mm 4 mps 714 mmHg 85%
    02:00 +1°C° 0 mm 4 mps 714 mmHg 83%
    03:00 0°C° 0 mm 4 mps 714 mmHg 82%
    04:00 0°C° 0 mm 4 mps 713 mmHg 82%
    05:00 0°C° 0 mm 4 mps 714 mmHg 83%
    06:00 0°C° 0 mm 4 mps 714 mmHg 81%
    07:00 0°C° 0 mm 4 mps 714 mmHg 80%
    08:00 0°C° 0 mm 4 mps 714 mmHg 81%
    09:00 +1°C° 0 mm 3 mps 715 mmHg 82%
    10:00 +2°C° 0 mm 3 mps 715 mmHg 83%
    11:00 +5°C° 0 mm 2 mps 715 mmHg 83%
    12:00 +5°C° 0 mm 3 mps 715 mmHg 82%
    13:00 +7°C° 0 mm 2 mps 715 mmHg 80%
    14:00 +7°C° 0 mm 2 mps 715 mmHg 81%
    15:00 +6°C° 0 mm 2 mps 715 mmHg 83%
    16:00 +4°C° 0 mm 3 mps 715 mmHg 86%
    17:00 +3°C° 0 mm 4 mps 714 mmHg 85%
    18:00 +1°C° 0 mm 5 mps 714 mmHg 85%
    19:00 +1°C° 0 mm 5 mps 714 mmHg 84%
    20:00 0°C° 0 mm 4 mps 714 mmHg 83%
    21:00 0°C° 0 mm 5 mps 713 mmHg 82%
    22:00 +1°C° 0 mm 5 mps 713 mmHg 81%
    23:00 +1°C° 0 mm 6 mps 713 mmHg 82%

    9 December, Monday

    Time Temperature Precipitation Wind Pressure Humidity
    00:00 +1°C° 0 mm 6 mps 712 mmHg 81%
    01:00 0°C° 0 mm 7 mps 712 mmHg 81%
    02:00 0°C° 0 mm 7 mps 711 mmHg 83%
    03:00 +2°C° 0 mm 6 mps 710 mmHg 83%
    04:00 +2°C° 0 mm 5 mps 710 mmHg 84%
    05:00 +3°C° 0 mm 4 mps 710 mmHg 85%
    06:00 +4°C° 0 mm 4 mps 710 mmHg 81%
    07:00 +4°C° 0 mm 4 mps 709 mmHg 82%
    08:00 +4°C° 0 mm 4 mps 709 mmHg 83%
    09:00 +5°C° 0 mm 4 mps 709 mmHg 82%
    10:00 +5°C° 0 mm 4 mps 709 mmHg 81%
    11:00 +6°C° 0 mm 5 mps 709 mmHg 79%
    12:00 +6°C° 0 mm 8 mps 709 mmHg 76%
    13:00 +6°C° 0 mm 8 mps 708 mmHg 76%
    14:00 +7°C° 0 mm 6 mps 708 mmHg 77%

    10 December, Tuesday

    Time Temperature Precipitation Wind Pressure Humidity

    11 December, Wednesday

    Time Temperature Precipitation Wind Pressure Humidity
    Show more